Weather History for KRAL - September, 2014

Change the Weather History Date:

Tuesday, September 23, 2014

  Actual Average Record
Temperature  
Mean Temperature 80 °F 75 °F  
Max Temperature 97 °F 88 °F 109 °F (1949)
Min Temperature 62 °F 61 °F 41 °F (1941)
Degree Days  
Heating Degree Days 0 0  
Month to date heating degree days 0 0  
Since 1 July heating degree days 0 0  
Cooling Degree Days 15 10  
Month to date cooling degree days 381 274  
Year to date cooling degree days 1972 1532  
Growing Degree Days 30 (Base 50)    
Moisture  
Dew Point 55 °F    
Average Humidity 52    
Maximum Humidity 90    
Minimum Humidity 14    
Precipitation  
Precipitation 0.00 in 0.01 in 0.17 in (1987)
Month to date precipitation 0.23 0.17  
Year to date precipitation 2.09 9.51  
Since 1 July precipitation 0.37 0.32  
Snow  
Snow 0.00 in - - ()
Month to date snowfall 0.0  
Year to date snowfall 0.0  
Since 1 July snowfall 0.0  
Snow Depth 0.00 in    
Sea Level Pressure  
Sea Level Pressure 29.89 in    
Wind  
Wind Speed 4 mph (West)    
Max Wind Speed 14 mph    
Max Gust Speed 19 mph    
Visibility 10 miles    
Events      
T = Trace of Precipitation, MM = Missing Value Source: NWS Daily Summary

Daily Weather History Graph

Daily Weather History Graph

Search for Another Location

Airport or City:

Trip Planner

Search our weather history database for the weather conditions in past years. The results will help you decide how hot, cold, wet, or windy it might be!

Date:

Astronomy

Sep. 23, 2014 Rise Set
Actual Time 6:38 AM PDT 6:44 PM PDT
Civil Twilight 6:13 AM PDT 7:09 PM PDT
Nautical Twilight 5:44 AM PDT 7:38 PM PDT
Astronomical Twilight 5:15 AM PDT 8:08 PM PDT
Moon 6:07 AM PDT (9/23) 6:27 PM PDT (9/23)
Length of Visible Light 12h 56m
Length of Day
12h 06m
Waning Crescent, 0% of the Moon is Illuminated
Sep 23
Waning Crescent
Sep 23
New
Oct 1
First Quarter
Oct 8
Full
Oct 15
Last Quarter

Hourly Weather History & Observations

Time (PDT) Temp. Heat Index Dew Point Humidity Pressure Visibility Wind Dir Wind Speed Gust Speed Precip Events Conditions
12:53 AM 69.1 °F - 60.1 °F 73% 29.92 in 10.0 mi Calm Calm - N/A   Clear
1:53 AM 66.9 °F - 60.1 °F 79% 29.92 in 10.0 mi Calm Calm - N/A   Clear
2:53 AM 66.0 °F - 60.1 °F 81% 29.92 in 10.0 mi Calm Calm - N/A   Clear
3:53 AM 64.9 °F - 59.0 °F 81% 29.91 in 10.0 mi Calm Calm - N/A   Clear
4:53 AM 63.0 °F - 59.0 °F 87% 29.91 in 10.0 mi Calm Calm - N/A   Clear
5:53 AM 63.0 °F - 59.0 °F 87% 29.92 in 10.0 mi Calm Calm - N/A   Clear
6:53 AM 63.0 °F - 57.9 °F 84% 29.94 in 10.0 mi Calm Calm - N/A   Clear
7:53 AM 64.9 °F - 57.0 °F 75% 29.94 in 10.0 mi Calm Calm - N/A   Clear
8:53 AM 71.1 °F - 59.0 °F 66% 29.95 in 10.0 mi NE 3.5 mph - N/A   Clear
9:53 AM 75.9 °F - 57.9 °F 54% 29.95 in 10.0 mi SW 3.5 mph - N/A   Clear
10:53 AM 81.0 °F 81.0 °F 57.0 °F 44% 29.94 in 10.0 mi Calm Calm - N/A   Clear
11:53 AM 86.0 °F 84.0 °F 53.1 °F 32% 29.92 in 10.0 mi Calm Calm - N/A   Clear
12:53 PM 91.9 °F - 46.9 °F 21% 29.90 in 10.0 mi Variable 5.8 mph - N/A   Clear
1:53 PM 93.9 °F - 46.0 °F 19% 29.87 in 10.0 mi West 5.8 mph - N/A   Clear
2:53 PM 97.0 °F - 39.0 °F 13% 29.84 in 10.0 mi West 6.9 mph - N/A   Clear
3:53 PM 96.1 °F - 48.9 °F 20% 29.83 in 10.0 mi West 10.4 mph - N/A   Clear
4:53 PM 93.0 °F 90.8 °F 54.0 °F 27% 29.82 in 10.0 mi West 11.5 mph - N/A   Clear
5:53 PM 88.0 °F 85.9 °F 54.0 °F 31% 29.83 in 10.0 mi West 11.5 mph - N/A   Clear
6:53 PM 84.0 °F 82.6 °F 54.0 °F 35% 29.83 in 10.0 mi West 9.2 mph - N/A   Clear
7:53 PM 81.0 °F 80.8 °F 55.9 °F 42% 29.85 in 10.0 mi West 6.9 mph - N/A   Clear
8:53 PM 79.0 °F - 57.0 °F 47% 29.87 in 10.0 mi SW 4.6 mph - N/A   Clear
9:53 PM 77.0 °F - 57.0 °F 50% 29.88 in 10.0 mi Calm Calm - N/A   Clear
10:53 PM 73.9 °F - 55.9 °F 53% 29.89 in 10.0 mi West 4.6 mph - N/A   Clear
11:53 PM 73.0 °F - 57.0 °F 57% 29.89 in 10.0 mi Calm Calm - N/A   Clear